Miscellaneous Local Product
Issued by NWS Hastings, NE

Home | Current Version | Previous Version | Text Only | Print | Product List | Glossary On
Versions: 1 2 3 4 5 6 7 8 9 10 11 12 13 14 15 16 17 18 19 20 21 22 23 24 25 26 27 28 29 30 31 32 33 34 35 36 37 38 39 40 41 42 43 44 45 46 47 48 49 50
000
AXUS43 KGID 110202
MISGRI

GID CWA HOURLY WEATHER ROUNDUP
NATIONAL WEATHER SERVICE HASTINGS NE
800 PM CST SAT DEC 10 2016

NOTE: "FAIR" INDICATES FEW OR NO CLOUDS BELOW 12,000 FEET WITH NO
SIGNIFICANT WEATHER AND/OR OBSTRUCTIONS TO VISIBILITY.

...SOUTH CENTRAL NEBRASKA...

CITY           SKY/WX    TMP DP  RH WIND       PRES   REMARKS
GRAND ISLAND   CLOUDY    30  22  72 SE10      29.85F WCI  21
HASTINGS       CLOUDY    31  21  66 S9        29.85F WCI  23
KEARNEY        CLOUDY    28  19  69 S8        29.82F WCI  20
ORD            CLOUDY    30  19  63 SE10      29.81S WCI  21
YORK           MOCLDY    30  19  64 SE9       29.89S WCI  22
AURORA         CLOUDY    30  20  66 SE9       29.87R WCI  22
LEXINGTON      CLOUDY    30  24  78 SE7       29.79F WCI  23
HOLDREGE       CLOUDY    31  24  74 S6        29.82F WCI  25
HEBRON         CLOUDY    31  21  67 SE8       29.89F WCI  23

...NEBRASKA PANHANDLE...

CITY           SKY/WX    TMP DP  RH WIND       PRES   REMARKS
CHADRON        CLOUDY     8   4  83 N6        29.66F WCI  -2
ALLIANCE       CLOUDY    27  22  81 S9        29.64F WCI  18
SCOTTSBLUFF    CLOUDY    25  19  78 SE5       29.65F WCI  19
SIDNEY         CLOUDY    29  24  82 S9        29.69F WCI  20

...WESTERN AND NORTH CENTRAL NEBRASKA...

CITY           SKY/WX    TMP DP  RH WIND       PRES   REMARKS
VALENTINE      CLOUDY    12  10  92 N3        29.74F FOG
AINSWORTH      CLOUDY    27  24  86 SE9       29.74F WCI  18
ONEILL         CLOUDY    28  22  78 SE8       29.84F WCI  19
BROKEN BOW     CLOUDY    31  23  72 S7        29.80R WCI  24
IMPERIAL       CLOUDY    27  24  89 CALM      29.75F
NORTH PLATTE   CLOUDY    28  22  78 SE5       29.77F WCI  23
MCCOOK         CLOUDY    29  23  78 E6        29.78F WCI  23

...EASTERN NEBRASKA...

CITY           SKY/WX    TMP DP  RH WIND       PRES   REMARKS
NORFOLK        CLOUDY    26  18  71 E10       29.90F WCI  16
SO SIOUX CITY  CLOUDY    27  20  75 SE14      29.99F WCI  16
TEKAMAH        CLOUDY    28  20  71 SE14      29.99F WCI  17
COLUMBUS       CLOUDY    28  18  64 E10       29.91F WCI  19
ALBION         CLOUDY    29  19  68 SE9       29.88R WCI  20
OMAHA EPPLEY   CLOUDY    32  18  56 SE13      30.00F WCI  22
OFFUTT AFB     CLOUDY    32  20  61 SE10      29.99F WCI  23
MILLARD        CLOUDY    33  20  59 SE9       29.98S WCI  26
LINCOLN        CLOUDY    32  21  64 SE10      29.96F WCI  24
NEBRASKA CITY  CLOUDY    31  17  55 SE10      29.98F WCI  22
BEATRICE       CLOUDY    32  22  68 SE9       29.93F WCI  24
FALLS CITY     CLOUDY    33  22  63 SE10      29.99F WCI  25

...NORTHERN KANSAS...

CITY           SKY/WX    TMP DP  RH WIND       PRES   REMARKS
GOODLAND       CLOUDY    31  25  78 S10       29.74R WCI  22
HILL CITY      CLOUDY    31  24  75 SE6       29.80F WCI  25
NORTON         CLEAR     28  19  69 E5        29.79S WCI  23
PHILLIPSBURG   CLEAR     34  25  69 E5        29.83R WCI  30
SMITH CENTER   CLEAR     30  25  80 E10       29.84F WCI  21
BELOIT         CLEAR     32  23  69 E6        29.87F WCI  26
HAYS           CLOUDY    31  25  78 SE9       29.81F WCI  23
RUSSELL        CLOUDY    34  26  72 S13       29.81F WCI  25
CONCORDIA      CLOUDY    34  23  64 SE12      29.89F WCI  25
SALINA         CLOUDY    38  25  59 S13       29.89F WCI  30
TOPEKA         CLOUDY    35  21  56 E7        30.00F WCI  29



USA.gov is the U.S. government's official web portal to all federal, state and local government web resources and services.